Regional Weather Roundup
Issued by NWS Jackson, KY

Home | Current Version | Previous Version | Text Only | Print | Product List | Glossary Off
Versions: 1 2 3 4 5 6 7 8 9 10 11 12 13 14 15 16 17 18 19 20 21 22 23 24 25 26 27 28 29 30 31 32 33 34 35 36 37 38 39 40 41 42 43 44 45 46 47 48 49 50

000
ASUS43 KJKL 252010
RWRJKL

EAST KENTUCKY HOURLY WEATHER ROUNDUP
NATIONAL WEATHER SERVICE JACKSON KY
300 PM EST THU DEC 25 2014

NOTE: "FAIR" INDICATES FEW OR NO CLOUDS BELOW 12,000 FEET WITH
NO SIGNIFICANT WEATHER AND/OR OBSTRUCTIONS TO VISIBILITY.

* THESE REPORTS ARE NOT UNDER NWS QUALITY CONTROL AND MAY NOT
  REPORT WEATHER SUCH AS PRECIPITATION AND FOG.

KYZ079-080-083-085-087-088-110-112-115-119-120-252100
...EASTERN KENTUCKY...

CITY           SKY/WX    TMP DP  RH WIND       PRES   REMARKS
JACKSON        CLOUDY    43  31  62 W7        30.14F
LONDON         PTSUNNY   44  29  55 SW6       30.16S
SOMERSET*      MOSUNNY   43  32  65 SW7       30.18S
MONTICELLO*    PTSUNNY   46  33  60 VRB6      30.19S
MIDDLESBORO*   SUNNY     47  33  59 S5        30.16S
HARLAN APT*    MOCLDY    45  30  57 S3        30.15F
HAZARD APT*    CLOUDY    43  32  65 W9        30.15F
BLACK MTN*       N/A     36  30  80 S1          N/A
PIKEVILLE APT* CLOUDY    43  32  65 SW6       30.14S
BIG SANDY*     CLOUDY    42  32  68 W5        30.15F
MOREHEAD APT*  CLOUDY    41  30  65 W7G14     30.16F
$$

KYZ035-036-041-042-044-050-067-078-099-252100
...CENTRAL KENTUCKY...

CITY           SKY/WX    TMP DP  RH WIND       PRES   REMARKS
MT STERLING*   CLOUDY    41  32  70 SW10      30.15S
FLEMING/MASON* CLOUDY    39  32  75 SW10      30.15S WCI  32
DANVILLE*      PTSUNNY   43  32  65 SW9       30.16S
RICHMOND*      CLOUDY    43  32  65 SW8       30.15R
LEXINGTON      CLOUDY    41  33  73 SW15      30.14S
FRANKFORT      CLOUDY    42  32  67 SW12      30.13S
$$

KYZ091>093-OHZ055-061-077-WVZ005-015-034-035-042-252100
...SOUTHERN OHIO/WEST VIRGINIA...

CITY           SKY/WX    TMP DP  RH WIND       PRES   REMARKS
COVINGTON      CLOUDY    40  30  67 SW8       30.12R WCI  34
COLUMBUS       CLOUDY    40  31  70 SW13      30.09R WCI  32
DAYTON         CLOUDY    39  31  72 SW15G23   30.10R WCI  31
WILMINGTON     CLOUDY    39  31  72 SW17      30.08F WCI  30
HUNTINGTON     CLOUDY    41  31  67 W8        30.15R
CHARLESTON     CLOUDY    43  31  62 W10       30.15S
PINEVILLE*     PTSUNNY   45  36  69 MISG      30.19S
BECKLEY        PTSUNNY   39  30  70 VRB5      30.11R
BLUEFIELD      MOSUNNY   40  28  62 W9        30.11R WCI  34
$$

VAZ002-007-008-TNZ017-027-036-066-071-252100
...SOUTHWEST VIRGINIA/EAST TENNESSEE...

CITY           SKY/WX    TMP DP  RH WIND       PRES   REMARKS
WISE*          PTSUNNY   43  30  61 W6        30.12F
JONESVILLE*    MOCLDY    45  32  61 CALM      30.18F
ABINGDON*      CLOUDY    46  32  58 W7        30.15S
BRISTOL        MOSUNNY   47  31  53 NW5       30.17S
KNOXVILLE      MOSUNNY   47  34  60 S3        30.16F
OAK RIDGE      MOSUNNY   48  33  56 CALM      30.18F
CROSSVILLE     SUNNY     43  32  65 SW5       30.15S
NASHVILLE      MOSUNNY   49  34  56 S8        30.17F
$$

...KEY TO REMARKS...
VSB - VISIBILITY IN MILES
WCI - WIND CHILL INDEX
HX  - HEAT INDEX

$$


USA.gov is the U.S. government's official web portal to all federal, state and local government web resources and services.